Location: Trebic
(49.2170°N, 15.8830°E)
Time: 22:33:50
(UTC+02:00)

ISS - Pass Details

Date: 31 March 2019
Orbit: 408 x 410 km, 51.6° (Epoch: 21 April)

Event Time Altitude Azimuth Distance (km) Brightness Sun altitude
Rises 22:37:09 0° 289° (WNW) 2,338 0.9 -28.1°
Reaches altitude 10° 22:39:19 10° 281° (W) 1,474 -0.4 -28.3°
Enters shadow 22:39:41 12° 279° (W) 1,339 -0.7 -28.4°
